TimeMDT,TemperatureF,Dew PointF,Humidity,Sea Level PressureIn,VisibilityMPH,Wind Direction,Wind SpeedMPH,Gust SpeedMPH,PrecipitationIn,Events,Conditions,WindDirDegrees,DateUTC
12:15 AM,53.2,37.4,55,30.20,10.0,ESE,4.6,-,N/A,,Clear,110,2013-08-08 06:15:00
12:35 AM,52.5,37.2,56,30.20,10.0,Calm,Calm,-,N/A,,Clear,0,2013-08-08 06:35:00
12:55 AM,54.1,36.3,51,30.21,10.0,ESE,3.5,-,N/A,,Clear,120,2013-08-08 06:55:00
1:15 AM,51.3,37.6,60,30.21,10.0,SSE,3.5,-,N/A,,Clear,150,2013-08-08 07:15:00
1:35 AM,50.7,37.6,61,30.20,10.0,Calm,Calm,-,N/A,,Clear,0,2013-08-08 07:35:00
1:55 AM,50.5,37.4,61,30.20,10.0,Calm,Calm,-,N/A,,Clear,0,2013-08-08 07:55:00
2:15 AM,50.2,37.8,62,30.20,10.0,ESE,3.5,-,N/A,,Clear,110,2013-08-08 08:15:00
2:35 AM,49.6,38.3,65,30.19,10.0,Calm,Calm,-,N/A,,Clear,0,2013-08-08 08:35:00
2:55 AM,49.8,38.1,64,30.19,10.0,Calm,Calm,-,N/A,,Clear,0,2013-08-08 08:55:00
3:15 AM,49.1,38.3,66,30.19,10.0,Calm,Calm,-,N/A,,Clear,0,2013-08-08 09:15:00
3:35 AM,49.6,37.8,64,30.19,10.0,Calm,Calm,-,N/A,,Clear,0,2013-08-08 09:35:00
3:55 AM,48.9,38.1,66,30.19,10.0,Calm,Calm,-,N/A,,Scattered Clouds,0,2013-08-08 09:55:00
4:15 AM,48.9,38.3,67,30.19,10.0,Calm,Calm,-,N/A,,Mostly Cloudy,0,2013-08-08 10:15:00
4:35 AM,47.3,37.9,70,30.19,10.0,Calm,Calm,-,N/A,,Scattered Clouds,0,2013-08-08 10:35:00
4:55 AM,48.0,38.1,69,30.19,10.0,Calm,Calm,-,N/A,,Clear,0,2013-08-08 10:55:00
5:15 AM,47.8,38.7,70,30.20,10.0,Calm,Calm,-,N/A,,Clear,0,2013-08-08 11:15:00
5:35 AM,47.1,39.2,74,30.20,10.0,Calm,Calm,-,N/A,,Clear,0,2013-08-08 11:35:00
5:55 AM,47.1,38.5,72,30.20,10.0,Calm,Calm,-,N/A,,Clear,0,2013-08-08 11:55:00
6:15 AM,47.7,38.3,70,30.21,10.0,Calm,Calm,-,N/A,,Clear,0,2013-08-08 12:15:00
6:35 AM,47.5,38.3,70,30.21,10.0,Calm,Calm,-,N/A,,Clear,0,2013-08-08 12:35:00
6:55 AM,47.5,37.9,69,30.22,10.0,Calm,Calm,-,N/A,,Clear,0,2013-08-08 12:55:00
7:15 AM,47.5,38.3,70,30.23,10.0,Calm,Calm,-,N/A,,Clear,0,2013-08-08 13:15:00
7:35 AM,48.7,38.8,69,30.23,10.0,Calm,Calm,-,N/A,,Clear,0,2013-08-08 13:35:00
7:55 AM,49.8,39.4,67,30.23,10.0,Calm,Calm,-,N/A,,Clear,0,2013-08-08 13:55:00
8:15 AM,50.5,39.9,67,30.23,10.0,Calm,Calm,-,N/A,,Clear,0,2013-08-08 14:15:00
8:35 AM,52.7,39.6,61,30.24,10.0,Calm,Calm,-,N/A,,Clear,0,2013-08-08 14:35:00
8:55 AM,55.4,39.2,54,30.24,10.0,Calm,Calm,-,N/A,,Clear,0,2013-08-08 14:55:00
9:15 AM,56.7,39.4,52,30.24,10.0,Calm,Calm,-,N/A,,Clear,0,2013-08-08 15:15:00
9:35 AM,59.0,39.2,48,30.24,10.0,Calm,Calm,-,N/A,,Clear,0,2013-08-08 15:35:00
9:54 AM,59.7,38.8,46,30.24,10.0,Calm,Calm,-,N/A,,Clear,0,2013-08-08 15:54:00
10:15 AM,61.3,38.5,43,30.24,10.0,Calm,Calm,-,N/A,,Clear,0,2013-08-08 16:15:00
10:35 AM,66.4,35.1,31,30.24,10.0,Calm,Calm,-,N/A,,Clear,0,2013-08-08 16:35:00
10:55 AM,70.0,34.3,27,30.24,10.0,Calm,Calm,-,N/A,,Clear,0,2013-08-08 16:55:00
11:15 AM,71.8,31.5,23,30.24,10.0,SSW,3.5,-,N/A,,Clear,210,2013-08-08 17:15:00
11:35 AM,69.4,31.6,25,30.24,10.0,SSW,4.6,-,N/A,,Clear,210,2013-08-08 17:35:00
11:55 AM,69.8,32.2,25,30.24,10.0,WSW,5.8,-,N/A,,Clear,250,2013-08-08 17:55:00
12:15 PM,70.2,31.8,24,30.24,10.0,WSW,4.6,-,N/A,,Clear,250,2013-08-08 18:15:00
12:35 PM,70.7,30.7,23,30.24,10.0,Calm,Calm,-,N/A,,Clear,0,2013-08-08 18:35:00
12:55 PM,70.7,30.7,23,30.24,10.0,Calm,Calm,-,N/A,,Clear,0,2013-08-08 18:55:00
1:15 PM,71.6,31.3,23,30.22,10.0,Calm,Calm,-,N/A,,Clear,0,2013-08-08 19:15:00
1:35 PM,73.2,30.7,21,30.20,10.0,South,5.8,-,N/A,,Clear,180,2013-08-08 19:35:00
1:55 PM,73.6,28.8,19,30.20,10.0,Calm,Calm,-,N/A,,Clear,0,2013-08-08 19:55:00
2:15 PM,74.8,28.6,18,30.20,10.0,Calm,Calm,-,N/A,,Clear,0,2013-08-08 20:15:00
2:35 PM,77.2,26.6,15,30.20,10.0,ENE,4.6,-,N/A,,Clear,70,2013-08-08 20:35:00
2:55 PM,77.0,27.1,16,30.18,10.0,West,4.6,-,N/A,,Clear,270,2013-08-08 20:55:00
3:15 PM,77.4,25.5,15,30.18,10.0,NW,10.4,-,N/A,,Clear,310,2013-08-08 21:15:00
3:35 PM,75.6,29.3,18,30.19,10.0,ENE,25.3,-,N/A,,Mostly Cloudy,60,2013-08-08 21:35:00
3:55 PM,70.9,32.0,24,30.20,10.0,NE,31.1,35.7,N/A,,Mostly Cloudy,40,2013-08-08 21:55:00
4:15 PM,68.9,32.2,26,30.21,10.0,ENE,28.8,41.4,N/A,,Scattered Clouds,60,2013-08-08 22:15:00
4:35 PM,67.5,32.0,27,30.22,10.0,ENE,21.9,33.4,N/A,,Clear,60,2013-08-08 22:35:00
4:55 PM,66.9,32.0,27,30.24,10.0,ENE,12.7,26.5,N/A,,Scattered Clouds,70,2013-08-08 22:55:00
5:14 PM,65.7,34.0,31,30.25,10.0,SE,18.4,21.9,N/A,,Mostly Cloudy,140,2013-08-08 23:14:00
5:34 PM,65.3,34.7,32,30.26,10.0,ESE,20.7,25.3,N/A,,Scattered Clouds,110,2013-08-08 23:34:00
5:54 PM,65.5,34.2,31,30.25,10.0,East,19.6,26.5,N/A,,Clear,100,2013-08-08 23:54:00
6:14 PM,65.3,33.6,31,30.24,10.0,East,11.5,19.6,N/A,,Clear,100,2013-08-09 00:14:00
6:34 PM,65.3,33.8,31,30.24,10.0,ESE,10.4,-,N/A,,Clear,110,2013-08-09 00:34:00
6:54 PM,65.5,34.2,31,30.24,10.0,ESE,8.1,-,N/A,,Clear,120,2013-08-09 00:54:00
7:14 PM,66.4,33.4,29,30.24,10.0,ENE,4.6,-,N/A,,Clear,70,2013-08-09 01:14:00
7:34 PM,64.9,35.1,33,30.24,10.0,NE,3.5,-,N/A,,Clear,50,2013-08-09 01:34:00
7:54 PM,64.0,34.0,33,30.24,10.0,ESE,3.5,-,N/A,,Clear,110,2013-08-09 01:54:00
8:14 PM,62.4,35.1,36,30.24,10.0,East,3.5,-,N/A,,Clear,100,2013-08-09 02:14:00
8:34 PM,61.2,34.3,37,30.24,10.0,Calm,Calm,-,N/A,,Clear,0,2013-08-09 02:34:00
8:54 PM,60.1,35.6,40,30.24,10.0,Calm,Calm,-,N/A,,Clear,0,2013-08-09 02:54:00
9:14 PM,59.9,35.4,40,30.26,10.0,Calm,Calm,-,N/A,,Clear,0,2013-08-09 03:14:00
9:34 PM,58.8,35.4,42,30.27,10.0,Calm,Calm,-,N/A,,Mostly Cloudy,0,2013-08-09 03:34:00
9:54 PM,59.4,35.1,40,30.26,10.0,Calm,Calm,-,N/A,,Mostly Cloudy,0,2013-08-09 03:54:00
10:14 PM,56.7,37.2,48,30.27,10.0,Calm,Calm,-,N/A,,Mostly Cloudy,0,2013-08-09 04:14:00
10:34 PM,57.2,35.6,44,30.26,10.0,Calm,Calm,-,N/A,,Scattered Clouds,0,2013-08-09 04:34:00
10:54 PM,55.6,36.9,49,30.27,10.0,Calm,Calm,-,N/A,,Clear,0,2013-08-09 04:54:00
11:14 PM,55.6,36.3,48,30.26,10.0,Calm,Calm,-,N/A,,Clear,0,2013-08-09 05:14:00
11:34 PM,54.3,36.5,51,30.26,10.0,Calm,Calm,-,N/A,,Clear,0,2013-08-09 05:34:00
11:54 PM,53.2,36.7,53,30.26,10.0,ESE,5.8,-,N/A,,Clear,120,2013-08-09 05:54:00